Observations for Trim Market St
| Time | AQI | Temp °C | Hum % | Pres Pa | CO μg/m³ | H₂S μg/m³ | NO μg/m³ | NO₂ μg/m³ | O₃ μg/m³ | SO₂ μg/m³ | PM1 μg/m³ | PM2.5 μg/m³ | PM10 μg/m³ |
|---|---|---|---|---|---|---|---|---|---|---|---|---|---|
| Tuesday 18 August 2026 | |||||||||||||
| 09:04 | 2 | 20.5 | 65 | 56,332 | 0.02 | 0 | 2.98 | 5.77 | 56.44 | 0 | 0 | 1.3 | 2.3 |
| 09:03 | 2 | 20.6 | 65 | 56,367 | 0.14 | 0 | 3.08 | 6.69 | 53.48 | 0 | 0 | 1.3 | 2.3 |
| 09:02 | 2 | 20.6 | 65 | 56,390 | 0.17 | 0 | 2.74 | 6.94 | 54.11 | 0 | 0 | 1.3 | 2.3 |
| 09:01 | 2 | 20.6 | 65 | 56,416 | 0.04 | 0 | 2.93 | 6.69 | 53.19 | 0 | 0 | 1.79 | 2.95 |
| 09:00 | 2 | 20.6 | 65 | 56,445 | 0.05 | 0 | 3.06 | 6.82 | 51.72 | 0 | 0.71 | 1.79 | 2.95 |
| 08:55 | 2 | 20.7 | 66 | 56,432 | 0.07 | 0 | 2.99 | 6.98 | 47.06 | 0 | 0 | 1.29 | 2.31 |
| 08:52 | 2 | 20.7 | 66 | 56,317 | 0.09 | 0 | 2.84 | 5 | 48.46 | 0 | 0 | 1.27 | 2.33 |
| 08:49 | 2 | 20.7 | 66 | 56,194 | 0.13 | 0 | 2.35 | 6.09 | 45.49 | 0 | 0.71 | 2.24 | 3.64 |
| 08:45 | 2 | 20.6 | 67 | 55,967 | 0.14 | 0 | 2.18 | 5.16 | 46.8 | 0 | 0 | 1.23 | 2.37 |
| 08:42 | 2 | 20.5 | 67 | 55,885 | 0.2 | 0 | 1.79 | 5.02 | 43.73 | 0 | 0 | 1.23 | 3.03 |
| 08:41 | 2 | 20.5 | 67 | 55,827 | 0.12 | 0 | 1.77 | 5.25 | 53.34 | 0 | 0 | 2.2 | 4.32 |
| 08:40 | 2 | 20.4 | 67 | 55,795 | 0.11 | 0 | 1.85 | 5.57 | 47.82 | 0 | 0 | 1.22 | 2.39 |
| 08:39 | 2 | 20.4 | 68 | 55,761 | 0.12 | 0 | 2.16 | 5.11 | 51.93 | 0 | 0.71 | 2.19 | 3.68 |
| 08:38 | 2 | 20.4 | 68 | 55,710 | 0.11 | 0 | 1.99 | 4.96 | 52.79 | 0 | 0 | 2.19 | 4.97 |
| 08:37 | 2 | 20.3 | 68 | 55,667 | 0.1 | 0 | 2.33 | 4.48 | 51.73 | 0 | 0 | 1.21 | 2.41 |
| 08:33 | 2 | 20.2 | 68 | 55,396 | 0.09 | 0 | 2.25 | 4.02 | 50.78 | 0 | 0 | 1.19 | 2.43 |
| 08:32 | 2 | 20.1 | 68 | 55,316 | 0.11 | 0 | 2.06 | 3.61 | 48.2 | 0 | 0 | 2.16 | 3.71 |
| 08:31 | 2 | 20.1 | 68 | 55,209 | 0.14 | 0 | 2 | 5.86 | 44.78 | 0 | 0 | 1.18 | 2.44 |
| 08:30 | 2 | 20.1 | 69 | 55,093 | 0.12 | 0 | 1.99 | 3.83 | 48.7 | 0 | 0 | 1.17 | 2.45 |
| 08:22 | 2 | 19.8 | 70 | 54,354 | 0.15 | 0 | 2.25 | 4.37 | 41.58 | 0 | 0 | 1.61 | 3.76 |